Starlink 11168

operational
NORAD ID: 60183 Int'l Des: 2024-124 Owner: SPXS Country: US Constellation: starlink
LEOCIRCULAR

About Starlink 11168

Description loading...

Live Position

Loading 3D Globe...

Upcoming Passes

Altitude History

Altitude vs Time

uPlot chart will show altitude changes over time

Two-Line Element Set

1 60183U 24124A 25350.84601804 .00022738 00000-0 19179-3 0 9999
2 60183 53.1570 209.5670 0001100 104.4943 255.6198 15.69739733 84716
Epoch: Dec 16, 2025 • Age: 14 hours

Current Status

Altitude 365.3 km
Velocity 7.70 km/s
Sub-Earth Point 52.88°N, 44.07°E
Launch Date Jul 3, 2024
Age 1.4 years
Type internet

Technical Details

Classification Payload
Mass 960.00 kg
Dry Mass 910.00 kg
Total Mass 960.00 kg
Length 0.30 m
Diameter 4.10 m
Span 29.00 m
Shape Box + pan
Manufacturer SPXS
Bus Type Starlink V2MD
Phase Status In Orbit
Owner/State SPXS/US

Large Constellations

Loading constellations...